Location: Ay?beleni
(36.6500°N, 30.3000°E)
Time: 12:27:25
(UTC+00:00)

Envisat - Pass Details

Date: 02 August 2021
Orbit: 764 x 766 km, 98.2° (Epoch: 22 September)

Event Time Altitude Azimuth Distance (km) Brightness Sun altitude
Rises 02:28:17 0° 24° (NNE) 3,238 7.2 -7.6°
Reaches altitude 10° 02:30:53 10° 36° (NE) 2,307 6.7 -7.1°
Maximum altitude 02:35:19 30° 96° (E) 1,356 5.0 -6.3°
Drops below altitude 10° 02:39:42 10° 157° (SSE) 2,293 5.4 -5.5°
Sets 02:42:15 0° 168° (SSE) 3,214 6.1 -5.1°
